User: anonymous   Login
Location: 相模原市立博物館
(35.5593°N, 139.3931°E)
Time: 14:51:50
(UTC+09:00)
Language:

JY1SAT - Orbit

View from above orbital plane
View from above orbital plane
View from above satellite
View from above satellite

Ground track
Ground track

The orbit data is extracted from the following two-line orbital elements,

1 43803U 18099AX  22026.72901334  .00001378  00000-0  12684-3 0  9999
2 43803  97.6387  97.2809 0015401  28.5718 331.6345 14.96272175171870
Epoch (UTC): 26 January 2022 17:29:46
Eccentricity: 0.0015401
inclination: 97.6387°
perigee height: 568 km
apogee height: 589 km
right ascension of ascending node: 97.2809°
argument of perigee: 28.5718°
revolutions per day: 14.96272175
mean anomaly at epoch: 331.6345°
orbit number at epoch: 17187

The dashed part of the orbit path shows where the satellite is in the earth's shadow,  

DLR